COSMOS 249 DEB *, 3679

Orbit data source: Space-Track

COSMOS 249 DEB *, 3679 is space debris in LEO originally from a launch on Sun, 20 Oct 1968 UTC launched from the Tyuratam Missile And Space Complex (TTMTR). Debris objects in space refer to the collection of defunct objects orbiting the Earth. Examples of debris include non-operational satellites, rocket bodies, and fragments generated from explosions, collisions, or faulty payload assembly.

Loading next visibility...
Identifier
3679, 1968-091AE
Orbit
LEO
Country
Flag of CISCIS
Related business
Manufacturer
Unknown
Mission
Spacecraft
Bus & Motor
Unknown
Mass
Unknown
Launch date (UTC)
1968-10-20 (58 years ago)
Launch vehicle
Unknown
Launch site
Tyuratam Missile And Space Complex (TTMTR)
Object type
Payload
Rocket body
Debris
Shape & HBR
Unknown shape, 0.1 m
Radar Cross Section
Small (<0.1 m²)

Expand to show TLE details & history
Last TLE update: 11 hours ago

TLE from 11 hours ago
0 COSMOS 249 DEB *
1 03679U 68091AE  26127.21810267  .00001307  00000-0  36146-3 0  9998
2 03679  62.7508  92.4120 0475732 239.1696 116.1729 14.00353992778697
Epoch: 2026-05-07T05:14Z
TLE epoch observation values (Epoch: 2026-05-07T05:14:04.070Z)
Latitude
0.00003°
Longitude
148.82766°
Altitude
1,059.733 km
Speed
7.239 km/s
True Right ascension
06h 09m 38s
True Declination
0° 00' 00"
Sunlit
Object was in daylight at epoch
Visualization orbit readout
Latitude
Unknown
Longitude
Unknown
Altitude
Unknown
Speed
Unknown
Apparent Right ascension
Unknown
Apparent Declination
Unknown
Sunlit
N/A
Visualization observer readout
Local Sidereal Time
00:31:10
Azimuth
Unknown
Elevation
Unknown
Doppler factor
Unknown
Orbital elements
Apogee altitude
1,237.284 km
Perigee altitude
545.609 km
Semi-major axis
7,269.583 km
Eccentricity
0.04757
Inclination
62.7508°
RAAN
92.412°
Arg. of periapsis
239.1696°
True anomaly
120.93479°
Mean anomaly
116.1729°
Eccentric anomaly
118.56681°
Mean motion
3.5017 °/min
Orbital period
102.81 mins
BSTAR
0.00036146
Loading maneuver chart data...
Computing Atmospheric mass density...

Documentation

Showing up to 5 results
|